Time,TemperatureF,DewpointF,PressureIn,WindDirection,WindDirectionDegrees,WindSpeedMPH,WindSpeedGustMPH,Humidity,HourlyPrecipIn,Conditions,Clouds,dailyrainin,SoftwareType,DateUTC
2013-07-27 00:02:00,57.0,53.0,-100.00,SW,227,3.0,8.0,87,0.00,,,0.37,,2013-07-27 06:02:00,
2013-07-27 00:12:00,57.0,53.0,-100.00,SW,227,3.0,8.0,87,0.00,,,0.37,,2013-07-27 06:12:00,
2013-07-27 00:22:00,57.0,53.0,-100.00,SW,227,3.0,8.0,87,0.00,,,0.37,,2013-07-27 06:22:00,
2013-07-27 00:33:00,57.0,53.0,-100.00,SW,227,3.0,8.0,87,0.00,,,0.37,,2013-07-27 06:33:00,
2013-07-27 00:40:00,56.0,53.0,-100.00,NNW,327,2.0,4.0,91,0.00,,,0.35,,2013-07-27 06:40:00,
2013-07-27 01:02:00,56.0,53.0,-100.00,NNW,327,2.0,4.0,91,0.00,,,0.35,,2013-07-27 07:02:00,
2013-07-27 01:12:00,56.0,53.0,-100.00,NNW,327,2.0,4.0,91,0.00,,,0.35,,2013-07-27 07:12:00,
2013-07-27 01:22:00,56.0,53.0,-100.00,NNW,327,2.0,4.0,91,0.00,,,0.35,,2013-07-27 07:22:00,
2013-07-27 01:33:00,56.0,53.0,-100.00,NNW,327,2.0,4.0,91,0.00,,,0.35,,2013-07-27 07:33:00,
2013-07-27 01:40:00,55.0,53.0,-100.00,WNW,288,2.0,4.0,93,0.00,,,0.26,,2013-07-27 07:40:00,
2013-07-27 02:02:00,55.0,53.0,-100.00,WNW,288,2.0,4.0,93,0.00,,,0.26,,2013-07-27 08:02:00,
2013-07-27 02:12:00,55.0,53.0,-100.00,WNW,288,2.0,4.0,93,0.00,,,0.26,,2013-07-27 08:12:00,
2013-07-27 02:22:00,55.0,53.0,-100.00,WNW,288,2.0,4.0,93,0.00,,,0.26,,2013-07-27 08:22:00,
2013-07-27 02:32:00,55.0,53.0,-100.00,WNW,288,2.0,4.0,93,0.00,,,0.26,,2013-07-27 08:32:00,
2013-07-27 02:40:00,56.0,53.0,-100.00,North,358,1.0,4.0,89,0.00,,,0.26,,2013-07-27 08:40:00,
2013-07-27 03:12:00,56.0,53.0,-100.00,North,358,1.0,4.0,89,0.00,,,0.26,,2013-07-27 09:12:00,
2013-07-27 03:22:00,56.0,53.0,-100.00,North,358,1.0,4.0,89,0.00,,,0.26,,2013-07-27 09:22:00,
2013-07-27 03:33:00,56.0,53.0,-100.00,North,358,1.0,4.0,89,0.00,,,0.26,,2013-07-27 09:33:00,
2013-07-27 03:40:00,54.0,52.0,-100.00,WNW,284,2.0,4.0,93,0.00,,,0.26,,2013-07-27 09:40:00,
2013-07-27 04:12:00,54.0,52.0,-100.00,WNW,284,2.0,4.0,93,0.00,,,0.26,,2013-07-27 10:12:00,
2013-07-27 04:22:00,54.0,52.0,-100.00,WNW,284,2.0,4.0,93,0.00,,,0.26,,2013-07-27 10:22:00,
2013-07-27 04:32:00,54.0,52.0,-100.00,WNW,284,2.0,4.0,93,0.00,,,0.26,,2013-07-27 10:32:00,
2013-07-27 04:40:00,53.0,51.0,-100.00,WNW,287,4.0,5.0,94,0.00,,,0.26,,2013-07-27 10:40:00,
2013-07-27 05:02:00,53.0,51.0,-100.00,WNW,287,4.0,5.0,94,0.00,,,0.26,,2013-07-27 11:02:00,
2013-07-27 05:12:00,53.0,51.0,-100.00,WNW,287,4.0,5.0,94,0.00,,,0.26,,2013-07-27 11:12:00,
2013-07-27 05:22:00,53.0,51.0,-100.00,WNW,287,4.0,5.0,94,0.00,,,0.26,,2013-07-27 11:22:00,
2013-07-27 05:32:00,53.0,51.0,-100.00,WNW,287,4.0,5.0,94,0.00,,,0.26,,2013-07-27 11:32:00,
2013-07-27 05:40:00,52.0,50.0,-100.00,West,281,3.0,5.0,92,0.00,,,0.26,,2013-07-27 11:40:00,
2013-07-27 06:02:00,52.0,50.0,-100.00,West,281,3.0,5.0,92,0.00,,,0.26,,2013-07-27 12:02:00,
2013-07-27 06:12:00,52.0,50.0,-100.00,West,281,3.0,5.0,92,0.00,,,0.26,,2013-07-27 12:12:00,
2013-07-27 06:22:00,52.0,50.0,-100.00,West,281,3.0,5.0,92,0.00,,,0.26,,2013-07-27 12:22:00,
2013-07-27 06:33:00,52.0,50.0,-100.00,West,281,3.0,5.0,92,0.00,,,0.26,,2013-07-27 12:33:00,
2013-07-27 06:40:00,54.0,52.0,-100.00,NW,309,2.0,4.0,92,0.00,,,0.26,,2013-07-27 12:40:00,
2013-07-27 07:12:00,54.0,52.0,-100.00,NW,309,2.0,4.0,92,0.00,,,0.26,,2013-07-27 13:12:00,
2013-07-27 07:22:00,54.0,52.0,-100.00,NW,309,2.0,4.0,92,0.00,,,0.26,,2013-07-27 13:22:00,
2013-07-27 07:32:00,54.0,52.0,-100.00,NW,309,2.0,4.0,92,0.00,,,0.26,,2013-07-27 13:32:00,
2013-07-27 07:40:00,61.0,54.0,-100.00,NNE,21,3.0,4.0,78,0.00,,,0.26,,2013-07-27 13:40:00,
2013-07-27 08:02:00,61.0,54.0,-100.00,NNE,21,3.0,4.0,78,0.00,,,0.26,,2013-07-27 14:02:00,
2013-07-27 08:12:00,61.0,54.0,-100.00,NNE,21,3.0,4.0,78,0.00,,,0.26,,2013-07-27 14:12:00,
2013-07-27 08:22:00,61.0,54.0,-100.00,NNE,21,3.0,4.0,78,0.00,,,0.26,,2013-07-27 14:22:00,
2013-07-27 08:32:00,61.0,54.0,-100.00,NNE,21,3.0,4.0,78,0.00,,,0.26,,2013-07-27 14:32:00,
2013-07-27 08:40:00,63.0,56.0,-100.00,SE,127,3.0,5.0,79,0.00,,,0.26,,2013-07-27 14:40:00,
2013-07-27 09:12:00,63.0,56.0,-100.00,SE,127,3.0,5.0,79,0.00,,,0.26,,2013-07-27 15:12:00,
2013-07-27 09:22:00,63.0,56.0,-100.00,SE,127,3.0,5.0,79,0.00,,,0.26,,2013-07-27 15:22:00,
2013-07-27 09:33:00,63.0,56.0,-100.00,SE,127,3.0,5.0,79,0.00,,,0.26,,2013-07-27 15:33:00,
2013-07-27 10:12:00,64.0,57.0,-100.00,East,91,2.0,7.0,78,0.00,,,0.26,,2013-07-27 16:12:00,
2013-07-27 10:22:00,64.0,57.0,-100.00,East,91,2.0,7.0,78,0.00,,,0.26,,2013-07-27 16:22:00,
2013-07-27 10:33:00,64.0,57.0,-100.00,East,91,2.0,7.0,78,0.00,,,0.26,,2013-07-27 16:33:00,
2013-07-27 10:40:00,69.0,56.0,-100.00,SE,132,5.0,10.0,64,-99.99,,,0.26,,2013-07-27 16:40:00,
2013-07-27 11:02:00,69.0,56.0,-100.00,SE,132,5.0,10.0,64,-99.99,,,0.26,,2013-07-27 17:02:00,
2013-07-27 11:12:00,69.0,56.0,-100.00,SE,132,5.0,10.0,64,-99.99,,,0.26,,2013-07-27 17:12:00,
2013-07-27 11:22:00,69.0,56.0,-100.00,SE,132,5.0,10.0,64,-99.99,,,0.26,,2013-07-27 17:22:00,
2013-07-27 11:32:00,69.0,56.0,-100.00,SE,132,5.0,10.0,64,-99.99,,,0.26,,2013-07-27 17:32:00,
2013-07-27 19:12:00,75.0,55.0,-100.00,South,182,1.0,7.0,49,0.00,,,0.01,,2013-07-28 01:12:00,
2013-07-27 19:22:00,75.0,55.0,-100.00,South,182,1.0,7.0,49,0.00,,,0.01,,2013-07-28 01:22:00,
2013-07-27 19:40:00,72.0,53.0,-100.00,NW,311,2.0,4.0,52,0.00,,,0.00,,2013-07-28 01:40:00,
2013-07-27 20:02:00,72.0,53.0,-100.00,NW,311,2.0,4.0,52,0.00,,,0.00,,2013-07-28 02:02:00,
2013-07-27 20:12:00,72.0,53.0,-100.00,NW,311,2.0,4.0,52,0.00,,,0.00,,2013-07-28 02:12:00,
2013-07-27 20:22:00,72.0,53.0,-100.00,NW,311,2.0,4.0,52,0.00,,,0.00,,2013-07-28 02:22:00,
2013-07-27 20:32:00,72.0,53.0,-100.00,NW,311,2.0,4.0,52,0.00,,,0.00,,2013-07-28 02:32:00,
2013-07-27 20:40:00,66.0,51.0,-100.00,West,274,2.0,5.0,59,0.00,,,0.00,,2013-07-28 02:40:00,
2013-07-27 21:12:00,66.0,51.0,-100.00,West,274,2.0,5.0,59,0.00,,,0.00,,2013-07-28 03:12:00,
2013-07-27 21:22:00,66.0,51.0,-100.00,West,274,2.0,5.0,59,0.00,,,0.00,,2013-07-28 03:22:00,
2013-07-27 21:32:00,66.0,51.0,-100.00,West,274,2.0,5.0,59,0.00,,,0.00,,2013-07-28 03:32:00,
2013-07-27 21:40:00,67.0,52.0,-100.00,West,266,2.0,7.0,59,0.00,,,0.00,,2013-07-28 03:40:00,
2013-07-27 22:02:00,67.0,52.0,-100.00,West,266,2.0,7.0,59,0.00,,,0.00,,2013-07-28 04:02:00,
2013-07-27 22:12:00,67.0,52.0,-100.00,West,266,2.0,7.0,59,0.00,,,0.00,,2013-07-28 04:12:00,
2013-07-27 22:22:00,67.0,52.0,-100.00,West,266,2.0,7.0,59,0.00,,,0.00,,2013-07-28 04:22:00,
2013-07-27 22:32:00,67.0,52.0,-100.00,West,266,2.0,7.0,59,0.00,,,0.00,,2013-07-28 04:32:00,
2013-07-27 22:40:00,65.0,53.0,-100.00,NNW,337,4.0,13.0,66,0.00,,,-99.99,,2013-07-28 04:40:00,
2013-07-27 23:12:00,65.0,53.0,-100.00,NNW,337,4.0,13.0,66,0.00,,,-99.99,,2013-07-28 05:12:00,
2013-07-27 23:22:00,65.0,53.0,-100.00,NNW,337,4.0,13.0,66,0.00,,,-99.99,,2013-07-28 05:22:00,
2013-07-27 23:32:00,65.0,53.0,-100.00,NNW,337,4.0,13.0,66,0.00,,,-99.99,,2013-07-28 05:32:00,
2013-07-27 23:40:00,63.0,53.0,-100.00,NE,37,2.0,9.0,71,0.00,,,0.00,,2013-07-28 05:40:00,